| time (UTC) | temp C | wind direction | speed KPH | gust KPH | rain 1hr cm | rain 24hr cm | rain mn cm | humidity % | barometer mb |
| 20260506153523 | 10 | 311 | 20.9 | 38.6 | 0.03 | 0.38 | 0.38 | 42 | 1013.6 |
| 20260506153025 | 10 | 323 | 20.9 | 38.6 | 0.03 | 0.38 | 0.38 | 42 | 1013.5 |
| 20260506152520 | 10 | 307 | 16.1 | 27.4 | 0.03 | 0.38 | 0.38 | 43 | 1013.5 |
| 20260506152018 | 10 | 345 | 19.3 | 27.4 | 0.03 | 0.38 | 0.38 | 42 | 1013.4 |
| 20260506151517 | 10 | 359 | 17.7 | 29.0 | 0.03 | 0.38 | 0.38 | 41 | 1013.3 |
| 20260506151016 | 10 | 317 | 19.3 | 37.0 | 0.03 | 0.38 | 0.38 | 40 | 1013.3 |
| 20260506150518 | 10 | 323 | 19.3 | 32.2 | 0.00 | 0.36 | 0.36 | 40 | 1013.2 |
| 20260506150012 | 10 | 311 | 20.9 | 33.8 | 0.00 | 0.36 | 0.36 | 39 | 1013.2 |
| 20260506145511 | 10 | 350 | 20.9 | 33.8 | 0.00 | 0.36 | 0.36 | 39 | 1013.2 |
| 20260506145009 | 10 | 5 | 19.3 | 32.2 | 0.00 | 0.36 | 0.36 | 40 | 1013.0 |
| 20260506144507 | 9 | 359 | 19.3 | 35.4 | 0.00 | 0.36 | 0.36 | 39 | 1012.9 |
| 20260506144009 | 9 | 339 | 22.5 | 35.4 | 0.00 | 0.36 | 0.36 | 39 | 1012.7 |
| 20260506143507 | 9 | 338 | 19.3 | 30.6 | 0.00 | 0.36 | 0.36 | 42 | 1012.8 |
| 20260506143004 | 9 | 307 | 17.7 | 29.0 | 0.00 | 0.36 | 0.36 | 48 | 1012.7 |
| 20260506142503 | 9 | 345 | 17.7 | 25.7 | 0.00 | 0.36 | 0.36 | 49 | 1012.7 |
| 20260506142000 | 9 | 328 | 17.7 | 25.7 | 0.00 | 0.36 | 0.36 | 50 | 1012.7 |
| 20260506141558 | 8 | 328 | 17.7 | 25.7 | 0.00 | 0.36 | 0.36 | 52 | 1012.7 |
| 20260506141057 | 8 | 295 | 11.3 | 24.1 | 0.00 | 0.36 | 0.36 | 52 | 1012.7 |
| 20260506140558 | 8 | 325 | 11.3 | 24.1 | 0.00 | 0.36 | 0.36 | 53 | 1012.7 |
| 20260506140056 | 8 | 309 | 16.1 | 24.1 | 0.00 | 0.36 | 0.36 | 53 | 1012.7 |
| 20260506135553 | 8 | 315 | 12.9 | 22.5 | 0.00 | 0.36 | 0.36 | 53 | 1012.7 |
| 20260506135051 | 8 | 290 | 14.5 | 22.5 | 0.00 | 0.36 | 0.36 | 53 | 1012.7 |
| 20260506134550 | 8 | 289 | 11.3 | 19.3 | 0.00 | 0.36 | 0.36 | 52 | 1012.6 |
| 20260506134048 | 7 | 299 | 11.3 | 19.3 | 0.00 | 0.36 | 0.36 | 50 | 1012.6 |
| 20260506133547 | 7 | 302 | 11.3 | 20.9 | 0.00 | 0.36 | 0.36 | 50 | 1012.5 |
| 20260506133048 | 7 | 313 | 12.9 | 20.9 | 0.00 | 0.36 | 0.36 | 49 | 1012.4 |
| 20260506132545 | 7 | 303 | 11.3 | 19.3 | 0.00 | 0.36 | 0.36 | 44 | 1012.3 |
| 20260506132043 | 7 | 338 | 11.3 | 17.7 | 0.00 | 0.36 | 0.36 | 38 | 1012.3 |
| 20260506131541 | 7 | 338 | 9.7 | 17.7 | 0.00 | 0.36 | 0.36 | 23 | 1012.2 |
| 20260506131039 | 7 | 299 | 8.0 | 16.1 | 0.00 | 0.36 | 0.36 | 1 | 1012.0 |
| 20260506130538 | 6 | 301 | 6.4 | 16.1 | 0.00 | 0.36 | 0.36 | 1 | 1012.0 |
| 20260506130040 | 6 | 303 | 9.7 | 16.1 | 0.00 | 0.36 | 0.36 | 1 | 1011.8 |
| 20260506125536 | 6 | 323 | 8.0 | 16.1 | 0.00 | 0.36 | 0.36 | 1 | 1011.7 |
| 20260506125033 | 6 | 310 | 9.7 | 16.1 | 0.00 | 0.36 | 0.36 | 1 | 1011.7 |
| 20260506124532 | 6 | 318 | 9.7 | 16.1 | 0.00 | 0.36 | 0.36 | 1 | 1011.7 |
| 20260506124031 | 6 | 323 | 9.7 | 16.1 | 0.00 | 0.36 | 0.36 | 1 | 1011.5 |
| 20260506123530 | 6 | 297 | 9.7 | 16.1 | 0.00 | 0.36 | 0.36 | 1 | 1011.5 |
| 20260506123028 | 6 | 295 | 9.7 | 14.5 | 0.00 | 0.36 | 0.36 | 1 | 1011.4 |
| 20260506122527 | 6 | 308 | 9.7 | 14.5 | 0.00 | 0.36 | 0.36 | 1 | 1011.4 |
| 20260506122025 | 6 | 328 | 6.4 | 14.5 | 0.00 | 0.36 | 0.36 | 1 | 1011.3 |
| 20260506121523 | 6 | 306 | 6.4 | 16.1 | 0.00 | 0.36 | 0.36 | 1 | 1011.2 |
| 20260506121024 | 6 | 350 | 9.7 | 16.1 | 0.00 | 0.36 | 0.36 | 1 | 1011.1 |
| 20260506120520 | 7 | 338 | 8.0 | 19.3 | 0.00 | 0.36 | 0.36 | 1 | 1011.1 |
| 20260506120019 | 7 | 303 | 11.3 | 24.1 | 0.00 | 0.36 | 0.36 | 1 | 1011.0 |
| 20260506115516 | 7 | 291 | 16.1 | 24.1 | 0.00 | 0.36 | 0.36 | 1 | 1011.0 |
| 20260506115015 | 7 | 311 | 16.1 | 25.7 | 0.00 | 0.36 | 0.36 | 1 | 1010.9 |
| 20260506114515 | 7 | 299 | 17.7 | 24.1 | 0.00 | 0.36 | 0.36 | 1 | 1010.8 |
| 20260506114013 | 7 | 297 | 16.1 | 29.0 | 0.00 | 0.36 | 0.36 | 1 | 1010.8 |
| 20260506113512 | 7 | 298 | 17.7 | 29.0 | 0.00 | 0.36 | 0.36 | 1 | 1010.8 |
| 20260506113010 | 7 | 311 | 19.3 | 27.4 | 0.00 | 0.36 | 0.36 | 1 | 1010.8 |
| 20260506112509 | 7 | 313 | 17.7 | 27.4 | 0.00 | 0.36 | 0.36 | 1 | 1010.7 |
| 20260506112007 | 7 | 301 | 17.7 | 25.7 | 0.00 | 0.36 | 0.36 | 1 | 1010.7 |
| 20260506111506 | 7 | 302 | 19.3 | 25.7 | 0.00 | 0.36 | 0.36 | 1 | 1010.6 |
| 20260506111003 | 7 | 293 | 16.1 | 25.7 | 0.00 | 0.36 | 0.36 | 1 | 1010.6 |
| 20260506110502 | 7 | 310 | 11.3 | 17.7 | 0.00 | 0.36 | 0.36 | 1 | 1010.5 |
| 20260506110002 | 7 | 309 | 8.0 | 19.3 | 0.00 | 0.36 | 0.36 | 1 | 1010.4 |
| 20260506105600 | 7 | 304 | 8.0 | 19.3 | 0.00 | 0.36 | 0.36 | 1 | 1010.4 |
| 20260506105057 | 7 | 285 | 4.8 | 16.1 | 0.00 | 0.36 | 0.36 | 1 | 1010.2 |
| 20260506104607 | 7 | 307 | 6.4 | 17.7 | 0.00 | 0.36 | 0.36 | 1 | 1010.2 |
| 20260506104055 | 7 | 311 | 8.0 | 16.1 | 0.00 | 0.36 | 0.36 | 1 | 1010.0 |
| 20260506103553 | 6 | 294 | 8.0 | 14.5 | 0.00 | 0.36 | 0.36 | 1 | 1009.8 |
| 20260506103054 | 6 | 319 | 6.4 | 9.7 | 0.00 | 0.36 | 0.36 | 1 | 1009.7 |
| 20260506102550 | 6 | 315 | 4.8 | 11.3 | 0.00 | 0.36 | 0.36 | 1 | 1009.5 |
| 20260506102048 | 6 | 333 | 4.8 | 6.4 | 0.00 | 0.36 | 0.36 | 1 | 1009.4 |
| 20260506101558 | 6 | 333 | 0.0 | 0.0 | 0.00 | 0.36 | 0.36 | 1 | 1009.2 |
| 20260506101045 | 6 | 333 | 0.0 | 0.0 | 0.00 | 0.36 | 0.36 | 1 | 1009.1 |
| 20260506100546 | 6 | 333 | 0.0 | 0.0 | 0.00 | 0.36 | 0.36 | 1 | 1009.1 |
| 20260506100043 | 5 | 333 | 0.0 | 0.0 | 0.00 | 0.36 | 0.36 | 1 | 1008.9 |
| 20260506095542 | 5 | 333 | 0.0 | 0.0 | 0.00 | 0.38 | 0.36 | 1 | 1008.9 |
| 20260506095040 | 5 | 333 | 0.0 | 0.0 | 0.00 | 0.38 | 0.36 | 1 | 1008.9 |
| 20260506094539 | 5 | 333 | 0.0 | 0.0 | 0.00 | 0.38 | 0.36 | 1 | 1008.8 |
| 20260506094037 | 5 | 333 | 0.0 | 0.0 | 0.00 | 0.38 | 0.36 | 1 | 1008.7 |
| 20260506093537 | 5 | 333 | 0.0 | 0.0 | 0.00 | 0.38 | 0.36 | 1 | 1008.7 |
| 20260506093035 | 5 | 333 | 0.0 | 0.0 | 0.00 | 0.38 | 0.36 | 1 | 1008.7 |
| 20260506092533 | 5 | 35 | 0.0 | 0.0 | 0.00 | 0.38 | 0.36 | 1 | 1008.4 |
| 20260506092033 | 5 | 35 | 0.0 | 3.2 | 0.00 | 0.38 | 0.36 | 1 | 1008.3 |
| 20260506091530 | 5 | 35 | 0.0 | 3.2 | 0.00 | 0.38 | 0.36 | 1 | 1008.1 |
| 20260506091030 | 5 | 35 | 0.0 | 3.2 | 0.00 | 0.38 | 0.36 | 1 | 1008.0 |
| 20260506090527 | 5 | 35 | 0.0 | 6.4 | 0.00 | 0.38 | 0.36 | 1 | 1008.0 |
| 20260506090026 | 5 | 35 | 1.6 | 6.4 | 0.00 | 0.38 | 0.36 | 1 | 1008.1 |
| 20260506085525 | 5 | 35 | 3.2 | 6.4 | 0.00 | 0.41 | 0.36 | 1 | 1008.0 |
| 20260506085023 | 5 | 35 | 0.0 | 6.4 | 0.00 | 0.41 | 0.36 | 1 | 1007.9 |
| 20260506084533 | 6 | 5 | 1.6 | 4.8 | 0.00 | 0.41 | 0.36 | 1 | 1007.8 |
| 20260506084021 | 6 | 345 | 1.6 | 4.8 | 0.00 | 0.41 | 0.36 | 1 | 1007.7 |
| 20260506083521 | 5 | 345 | 0.0 | 4.8 | 0.00 | 0.41 | 0.36 | 1 | 1007.7 |
| 20260506083022 | 5 | 345 | 0.0 | 6.4 | 0.00 | 0.41 | 0.36 | 1 | 1007.8 |
| 20260506082515 | 6 | 345 | 1.6 | 4.8 | 0.00 | 0.41 | 0.36 | 1 | 1007.8 |
| 20260506082015 | 6 | 234 | 1.6 | 6.4 | 0.00 | 0.41 | 0.36 | 1 | 1007.5 |
| 20260506081513 | 5 | 172 | 1.6 | 4.8 | 0.00 | 0.41 | 0.36 | 1 | 1007.7 |
| 20260506081012 | 5 | 172 | 0.0 | 3.2 | 0.05 | 0.41 | 0.36 | 1 | 1007.7 |
| 20260506080510 | 6 | 172 | 0.0 | 3.2 | 0.13 | 0.41 | 0.36 | 1 | 1007.6 |
| 20260506073040 | 6 | 172 | 0.0 | 11.3 | 0.30 | 0.41 | 0.36 | 1 | 1007.5 |
| 20260506072539 | 7 | 192 | 6.4 | 16.1 | 0.33 | 0.41 | 0.36 | 1 | 1007.2 |
| 20260506072041 | 7 | 180 | 9.7 | 16.1 | 0.36 | 0.41 | 0.36 | 1 | 1007.1 |
| 20260506071538 | 7 | 163 | 11.3 | 14.5 | 0.33 | 0.38 | 0.33 | 1 | 1007.2 |
| 20260506071035 | 7 | 209 | 1.6 | 14.5 | 0.30 | 0.36 | 0.30 | 1 | 1007.9 |
| 20260506070532 | 7 | 259 | 9.7 | 16.1 | 0.23 | 0.28 | 0.23 | 1 | 1008.3 |
| 20260506062020 | 8 | 323 | 12.9 | 25.7 | 0.00 | 0.05 | 0.00 | 1 | 1007.5 |
| 20260506061518 | 9 | 345 | 17.7 | 27.4 | 0.00 | 0.05 | 0.00 | 1 | 1007.3 |
| 20260506061019 | 10 | 332 | 17.7 | 29.0 | 0.00 | 0.05 | 0.00 | 1 | 1007.1 |
| 20260506060514 | 10 | 345 | 17.7 | 29.0 | 0.00 | 0.05 | 0.00 | 1 | 1006.8 |
| 20260506051059 | 7 | 39 | 3.2 | 6.4 | 0.00 | 0.05 | 0.05 | 16 | 1004.9 |
| 20260506050557 | 7 | 39 | 0.0 | 6.4 | 0.00 | 0.05 | 0.05 | 15 | 1004.9 |
| 20260506050117 | 7 | 19 | 3.2 | 6.4 | 0.00 | 0.05 | 0.05 | 13 | 1005.1 |
| 20260506045053 | 7 | 335 | 3.2 | 8.0 | 0.00 | 0.05 | 0.05 | 17 | 1005.0 |
| 20260506044551 | 7 | 124 | 3.2 | 6.4 | 0.00 | 0.05 | 0.05 | 20 | 1004.7 |
| 20260506044049 | 8 | 277 | 0.0 | 6.4 | 0.00 | 0.05 | 0.05 | 18 | 1004.7 |
| 20260506043548 | 8 | 273 | 1.6 | 8.0 | 0.00 | 0.05 | 0.05 | 21 | 1004.8 |
| 20260506043049 | 8 | 223 | 0.0 | 8.0 | 0.00 | 0.05 | 0.05 | 23 | 1004.7 |
| 20260506042546 | 8 | 223 | 1.6 | 9.7 | 0.00 | 0.05 | 0.05 | 25 | 1004.7 |
| 20260506042046 | 8 | 180 | 4.8 | 9.7 | 0.00 | 0.05 | 0.05 | 24 | 1004.6 |
| 20260506041557 | 8 | 170 | 4.8 | 14.5 | 0.00 | 0.05 | 0.05 | 26 | 1004.6 |
| 20260506041041 | 8 | 171 | 8.0 | 14.5 | 0.00 | 0.05 | 0.05 | 28 | 1004.5 |
| 20260506040539 | 8 | 150 | 6.4 | 16.1 | 0.00 | 0.05 | 0.05 | 27 | 1004.3 |
| 20260506040039 | 8 | 164 | 11.3 | 16.1 | 0.00 | 0.05 | 0.05 | 24 | 1004.2 |
| 20260506035540 | 7 | 145 | 9.7 | 16.1 | 0.00 | 0.05 | 0.05 | 20 | 1004.1 |
| 20260506035035 | 7 | 166 | 6.4 | 14.5 | 0.00 | 0.05 | 0.05 | 25 | 1004.1 |
| 20260506034547 | 7 | 121 | 6.4 | 12.9 | 0.00 | 0.05 | 0.05 | 32 | 1003.9 |
| 20260506034032 | 7 | 128 | 4.8 | 12.9 | 0.00 | 0.05 | 0.05 | 36 | 1003.9 |
| 20260506033530 | 8 | 176 | 3.2 | 6.4 | 0.00 | 0.05 | 0.05 | 38 | 1003.9 |
| 20260506033028 | 8 | 176 | 3.2 | 8.0 | 0.00 | 0.05 | 0.05 | 37 | 1003.9 |
| 20260506032527 | 8 | 176 | 4.8 | 8.0 | 0.00 | 0.05 | 0.05 | 38 | 1003.8 |
| 20260506032027 | 8 | 176 | 4.8 | 8.0 | 0.00 | 0.05 | 0.05 | 37 | 1003.8 |
| 20260506031525 | 8 | 176 | 1.6 | 6.4 | 0.00 | 0.05 | 0.05 | 40 | 1003.8 |
| 20260506031024 | 9 | 176 | 0.0 | 6.4 | 0.00 | 0.05 | 0.05 | 42 | 1003.7 |
| 20260506030521 | 10 | 176 | 1.6 | 11.3 | 0.00 | 0.05 | 0.05 | 43 | 1003.7 |
| 20260506030020 | 10 | 176 | 4.8 | 12.9 | 0.00 | 0.05 | 0.05 | 42 | 1003.6 |
| 20260506025521 | 10 | 177 | 8.0 | 12.9 | 0.00 | 0.05 | 0.05 | 41 | 1003.5 |
| 20260506025017 | 9 | 182 | 8.0 | 12.9 | 0.00 | 0.05 | 0.05 | 41 | 1003.4 |
| 20260506024515 | 9 | 200 | 1.6 | 9.7 | 0.00 | 0.05 | 0.05 | 45 | 1003.3 |
| 20260506024014 | 10 | 244 | 4.8 | 11.3 | 0.00 | 0.05 | 0.05 | 46 | 1003.1 |
| 20260506023516 | 10 | 251 | 3.2 | 9.7 | 0.00 | 0.05 | 0.05 | 49 | 1003.0 |
| 20260506023012 | 11 | 244 | 4.8 | 11.3 | 0.00 | 0.05 | 0.05 | 50 | 1002.9 |
| 20260506022509 | 11 | 154 | 8.0 | 11.3 | 0.00 | 0.05 | 0.05 | 51 | 1002.7 |
| 20260506022008 | 11 | 155 | 6.4 | 14.5 | 0.00 | 0.05 | 0.05 | 51 | 1002.7 |
| 20260506021507 | 11 | 154 | 11.3 | 16.1 | 0.00 | 0.05 | 0.05 | 51 | 1002.6 |
| 20260506021006 | 12 | 149 | 9.7 | 19.3 | 0.00 | 0.05 | 0.05 | 51 | 1002.5 |
| 20260506020508 | 12 | 149 | 12.9 | 19.3 | 0.00 | 0.05 | 0.05 | 51 | 1002.5 |
| 20260506020004 | 12 | 144 | 11.3 | 16.1 | 0.00 | 0.05 | 0.05 | 51 | 1002.4 |
| 20260506015503 | 12 | 144 | 11.3 | 17.7 | 0.00 | 0.05 | 0.05 | 50 | 1002.5 |
| 20260506015005 | 13 | 153 | 12.9 | 19.3 | 0.00 | 0.05 | 0.05 | 50 | 1002.4 |
| 20260506014502 | 13 | 155 | 14.5 | 22.5 | 0.00 | 0.05 | 0.05 | 49 | 1002.3 |
| 20260506014104 | 14 | 186 | 12.9 | 22.5 | 0.00 | 0.05 | 0.05 | 48 | 1002.3 |
| 20260506013558 | 14 | 163 | 16.1 | 24.1 | 0.00 | 0.05 | 0.05 | 48 | 1002.3 |
| 20260506013104 | 15 | 140 | 19.3 | 24.1 | 0.00 | 0.05 | 0.05 | 47 | 1002.2 |
| 20260506012558 | 15 | 174 | 11.3 | 22.5 | 0.00 | 0.05 | 0.05 | 47 | 1002.2 |
| 20260506012055 | 15 | 155 | 12.9 | 19.3 | 0.00 | 0.05 | 0.05 | 46 | 1002.1 |
| 20260506011556 | 15 | 163 | 14.5 | 19.3 | 0.00 | 0.05 | 0.05 | 46 | 1002.0 |
| 20260506011051 | 15 | 167 | 12.9 | 17.7 | 0.00 | 0.05 | 0.05 | 46 | 1001.9 |
| 20260506010549 | 16 | 157 | 14.5 | 22.5 | 0.00 | 0.05 | 0.05 | 46 | 1001.9 |
| 20260506010049 | 16 | 167 | 14.5 | 24.1 | 0.00 | 0.05 | 0.05 | 45 | 1001.9 |
| 20260506005547 | 16 | 181 | 6.4 | 12.9 | 0.00 | 0.05 | 0.05 | 44 | 1001.9 |
| 20260506005048 | 16 | 145 | 9.7 | 17.7 | 0.00 | 0.05 | 0.05 | 44 | 1001.9 |
| 20260506004544 | 16 | 139 | 8.0 | 17.7 | 0.00 | 0.05 | 0.05 | 44 | 1001.9 |
| 20260506004042 | 16 | 188 | 3.2 | 16.1 | 0.00 | 0.05 | 0.05 | 44 | 1001.9 |
| 20260506003541 | 16 | 137 | 11.3 | 19.3 | 0.00 | 0.05 | 0.05 | 44 | 1001.9 |
| 20260506003040 | 16 | 181 | 12.9 | 24.1 | 0.00 | 0.05 | 0.05 | 44 | 1001.7 |
| 20260506002538 | 16 | 118 | 9.7 | 17.7 | 0.00 | 0.05 | 0.05 | 43 | 1001.8 |
| 20260506002036 | 16 | 139 | 9.7 | 17.7 | 0.00 | 0.05 | 0.05 | 44 | 1001.7 |
| 20260506001535 | 16 | 129 | 8.0 | 19.3 | 0.00 | 0.05 | 0.05 | 43 | 1001.7 |
| 20260506001033 | 16 | 132 | 11.3 | 17.7 | 0.00 | 0.05 | 0.05 | 44 | 1001.7 |
| 20260506000532 | 16 | 129 | 11.3 | 16.1 | 0.00 | 0.05 | 0.05 | 44 | 1001.6 |
| 20260506000030 | 16 | 182 | 12.9 | 17.7 | 0.00 | 0.05 | 0.05 | 44 | 1001.7 |
| 20260505235529 | 16 | 180 | 4.8 | 14.5 | 0.00 | 0.05 | 0.05 | 44 | 1001.6 |
| 20260505235027 | 16 | 173 | 9.7 | 14.5 | 0.00 | 0.05 | 0.05 | 43 | 1001.7 |
| 20260505234526 | 17 | 204 | 4.8 | 11.3 | 0.00 | 0.05 | 0.05 | 43 | 1001.7 |
| 20260505234025 | 16 | 209 | 1.6 | 8.0 | 0.00 | 0.05 | 0.05 | 44 | 1001.7 |
| 20260505233527 | 16 | 240 | 0.0 | 14.5 | 0.00 | 0.05 | 0.05 | 44 | 1001.7 |
| 20260505233027 | 16 | 244 | 6.4 | 14.5 | 0.00 | 0.05 | 0.05 | 46 | 1001.7 |
| 20260505232521 | 16 | 194 | 1.6 | 12.9 | 0.00 | 0.05 | 0.05 | 44 | 1001.7 |
| 20260505232022 | 16 | 278 | 0.0 | 0.0 | 0.00 | 0.05 | 0.05 | 44 | 1001.7 |
| 20260505231523 | 16 | 225 | 0.0 | 3.2 | 0.00 | 0.05 | 0.05 | 44 | 1001.8 |
| 20260505231020 | 16 | 225 | 0.0 | 11.3 | 0.00 | 0.05 | 0.05 | 45 | 1001.7 |
| 20260505230520 | 16 | 225 | 3.2 | 11.3 | 0.00 | 0.05 | 0.05 | 45 | 1001.7 |
| 20260505230020 | 15 | 202 | 3.2 | 9.7 | 0.00 | 0.05 | 0.05 | 45 | 1001.7 |
| 20260505225518 | 15 | 230 | 0.0 | 9.7 | 0.00 | 0.05 | 0.05 | 45 | 1001.7 |
| 20260505225017 | 15 | 170 | 1.6 | 12.9 | 0.00 | 0.05 | 0.05 | 44 | 1001.8 |
| 20260505224516 | 15 | 222 | 3.2 | 16.1 | 0.00 | 0.05 | 0.05 | 44 | 1001.8 |
| 20260505224013 | 16 | 245 | 6.4 | 16.1 | 0.00 | 0.05 | 0.05 | 45 | 1001.8 |
| 20260505223512 | 15 | 240 | 3.2 | 11.3 | 0.00 | 0.05 | 0.05 | 45 | 1001.8 |
| 20260505223011 | 15 | 217 | 4.8 | 11.3 | 0.00 | 0.05 | 0.05 | 44 | 1001.9 |
| 20260505222512 | 15 | 249 | 3.2 | 11.3 | 0.00 | 0.05 | 0.05 | 46 | 1001.9 |
| 20260505222008 | 15 | 325 | 1.6 | 9.7 | 0.00 | 0.05 | 0.05 | 45 | 1002.0 |
| 20260505221507 | 15 | 273 | 3.2 | 9.7 | 0.00 | 0.05 | 0.05 | 45 | 1002.0 |
| 20260505221007 | 15 | 359 | 0.0 | 6.4 | 0.00 | 0.05 | 0.05 | 45 | 1002.0 |
| 20260505220503 | 15 | 359 | 1.6 | 9.7 | 0.00 | 0.05 | 0.05 | 44 | 1002.1 |
| 20260505220006 | 15 | 276 | 1.6 | 9.7 | 0.00 | 0.05 | 0.05 | 44 | 1002.1 |
| 20260505215601 | 15 | 309 | 3.2 | 9.7 | 0.00 | 0.05 | 0.05 | 44 | 1002.1 |
| 20260505215059 | 15 | 18 | 1.6 | 12.9 | 0.00 | 0.05 | 0.05 | 45 | 1002.0 |
| 20260505214607 | 15 | 326 | 0.0 | 19.3 | 0.00 | 0.05 | 0.05 | 45 | 1002.1 |
| 20260505214057 | 15 | 329 | 4.8 | 19.3 | 0.00 | 0.05 | 0.05 | 44 | 1002.1 |
| 20260505213555 | 15 | 60 | 3.2 | 17.7 | 0.00 | 0.05 | 0.05 | 44 | 1002.1 |
| 20260505213054 | 16 | 299 | 0.0 | 9.7 | 0.00 | 0.05 | 0.05 | 44 | 1002.1 |
| 20260505212553 | 15 | 101 | 3.2 | 14.5 | 0.00 | 0.05 | 0.05 | 45 | 1002.2 |
| 20260505212051 | 15 | 124 | 4.8 | 19.3 | 0.00 | 0.05 | 0.05 | 44 | 1002.2 |
| 20260505211600 | 16 | 179 | 11.3 | 19.3 | 0.00 | 0.05 | 0.05 | 44 | 1002.3 |
| 20260505211050 | 16 | 191 | 1.6 | 14.5 | 0.00 | 0.05 | 0.05 | 44 | 1002.2 |
| 20260505210549 | 16 | 332 | 3.2 | 19.3 | 0.00 | 0.05 | 0.05 | 44 | 1002.2 |
| 20260505210053 | 15 | 85 | 6.4 | 22.5 | 0.00 | 0.05 | 0.05 | 44 | 1002.4 |
| 20260505205548 | 16 | 186 | 8.0 | 17.7 | 0.00 | 0.05 | 0.05 | 44 | 1002.4 |
| 20260505205048 | 16 | 157 | 3.2 | 16.1 | 0.00 | 0.05 | 0.05 | 46 | 1002.4 |
| 20260505204544 | 15 | 68 | 4.8 | 20.9 | 0.00 | 0.05 | 0.05 | 45 | 1002.5 |
| 20260505204044 | 15 | 122 | 9.7 | 20.9 | 0.00 | 0.05 | 0.05 | 45 | 1002.6 |
| 20260505203542 | 15 | 107 | 6.4 | 17.7 | 0.00 | 0.05 | 0.05 | 47 | 1002.6 |
| 20260505203040 | 14 | 105 | 9.7 | 17.7 | 0.00 | 0.05 | 0.05 | 48 | 1002.5 |
| 20260505202539 | 14 | 137 | 9.7 | 16.1 | 0.00 | 0.05 | 0.05 | 47 | 1002.6 |
| 20260505202037 | 15 | 149 | 6.4 | 16.1 | 0.00 | 0.05 | 0.05 | 46 | 1002.6 |
| 20260505201536 | 15 | 122 | 6.4 | 16.1 | 0.00 | 0.05 | 0.05 | 45 | 1002.7 |
| 20260505201038 | 15 | 196 | 8.0 | 16.1 | 0.00 | 0.05 | 0.05 | 45 | 1002.6 |
| 20260505200533 | 15 | 128 | 8.0 | 19.3 | 0.00 | 0.05 | 0.05 | 46 | 1002.7 |
| 20260505200037 | 15 | 131 | 8.0 | 19.3 | 0.00 | 0.05 | 0.05 | 46 | 1002.6 |
| 20260505195529 | 14 | 153 | 12.9 | 19.3 | 0.00 | 0.05 | 0.05 | 46 | 1002.6 |
| 20260505195028 | 14 | 152 | 8.0 | 17.7 | 0.00 | 0.05 | 0.05 | 46 | 1002.7 |
| 20260505194527 | 14 | 134 | 9.7 | 17.7 | 0.00 | 0.05 | 0.05 | 46 | 1002.8 |
| 20260505194025 | 15 | 130 | 11.3 | 22.5 | 0.00 | 0.05 | 0.05 | 46 | 1002.8 |
| 20260505193524 | 14 | 115 | 9.7 | 22.5 | 0.00 | 0.05 | 0.05 | 46 | 1002.7 |
| 20260505193022 | 14 | 135 | 6.4 | 17.7 | 0.00 | 0.05 | 0.05 | 46 | 1002.8 |
| 20260505192522 | 14 | 128 | 12.9 | 20.9 | 0.00 | 0.05 | 0.05 | 46 | 1002.9 |
| 20260505192019 | 14 | 140 | 12.9 | 20.9 | 0.00 | 0.05 | 0.05 | 47 | 1002.8 |
| 20260505191526 | 13 | 120 | 14.5 | 19.3 | 0.00 | 0.05 | 0.05 | 47 | 1002.8 |
| 20260505191016 | 13 | 111 | 9.7 | 20.9 | 0.00 | 0.05 | 0.05 | 47 | 1002.8 |
| 20260505190518 | 13 | 124 | 11.3 | 24.1 | 0.00 | 0.05 | 0.05 | 47 | 1002.7 |
| 20260505190013 | 13 | 84 | 9.7 | 24.1 | 0.00 | 0.05 | 0.05 | 47 | 1002.8 |
| 20260505185512 | 13 | 109 | 14.5 | 22.5 | 0.00 | 0.05 | 0.05 | 48 | 1002.8 |
| 20260505185011 | 13 | 128 | 12.9 | 22.5 | 0.00 | 0.05 | 0.05 | 48 | 1002.9 |
| 20260505184510 | 13 | 91 | 9.7 | 24.1 | 0.00 | 0.05 | 0.05 | 47 | 1002.9 |
| 20260505184009 | 13 | 116 | 14.5 | 22.5 | 0.00 | 0.05 | 0.05 | 48 | 1003.0 |
| 20260505183507 | 13 | 130 | 16.1 | 22.5 | 0.00 | 0.05 | 0.05 | 48 | 1002.9 |
| 20260505183006 | 13 | 157 | 16.1 | 25.7 | 0.00 | 0.05 | 0.05 | 48 | 1003.0 |
| 20260505182505 | 13 | 143 | 14.5 | 25.7 | 0.00 | 0.05 | 0.05 | 47 | 1003.0 |
| 20260505182003 | 13 | 133 | 17.7 | 27.4 | 0.00 | 0.05 | 0.05 | 47 | 1002.9 |
| 20260505181502 | 13 | 115 | 16.1 | 25.7 | 0.00 | 0.05 | 0.05 | 47 | 1003.0 |
| 20260505181101 | 13 | 157 | 14.5 | 25.7 | 0.00 | 0.05 | 0.05 | 47 | 1003.0 |
| 20260505180558 | 13 | 138 | 14.5 | 22.5 | 0.00 | 0.05 | 0.05 | 48 | 1003.0 |
| 20260505180057 | 12 | 159 | 11.3 | 24.1 | 0.00 | 0.05 | 0.05 | 47 | 1002.9 |
| 20260505175555 | 13 | 134 | 12.9 | 24.1 | 0.00 | 0.05 | 0.05 | 48 | 1002.9 |
| 20260505175054 | 13 | 184 | 14.5 | 22.5 | 0.00 | 0.05 | 0.05 | 48 | 1002.9 |
| 20260505174601 | 13 | 157 | 17.7 | 24.1 | 0.00 | 0.05 | 0.05 | 49 | 1002.9 |
| 20260505174051 | 13 | 151 | 16.1 | 24.1 | 0.00 | 0.05 | 0.05 | 49 | 1002.9 |
| 20260505173551 | 13 | 134 | 14.5 | 24.1 | 0.00 | 0.05 | 0.05 | 49 | 1002.9 |
| 20260505173051 | 13 | 153 | 14.5 | 24.1 | 0.00 | 0.05 | 0.05 | 50 | 1002.9 |
| 20260505172547 | 12 | 158 | 14.5 | 24.1 | 0.00 | 0.05 | 0.05 | 50 | 1002.8 |
| 20260505172046 | 12 | 151 | 14.5 | 22.5 | 0.00 | 0.05 | 0.05 | 49 | 1003.0 |
| 20260505171544 | 12 | 159 | 12.9 | 19.3 | 0.00 | 0.05 | 0.05 | 49 | 1003.0 |
| 20260505171043 | 11 | 156 | 12.9 | 17.7 | 0.00 | 0.05 | 0.05 | 49 | 1003.0 |
| 20260505170541 | 11 | 164 | 11.3 | 16.1 | 0.00 | 0.05 | 0.05 | 48 | 1003.0 |
| 20260505170040 | 11 | 153 | 11.3 | 17.7 | 0.00 | 0.05 | 0.05 | 46 | 1003.0 |
| 20260505165541 | 11 | 178 | 9.7 | 17.7 | 0.00 | 0.05 | 0.05 | 46 | 1003.0 |
| 20260505165037 | 11 | 176 | 8.0 | 17.7 | 0.00 | 0.05 | 0.05 | 46 | 1003.0 |
| 20260505164535 | 10 | 191 | 12.9 | 16.1 | 0.00 | 0.05 | 0.05 | 46 | 1003.1 |
| 20260505164035 | 10 | 184 | 8.0 | 12.9 | 0.00 | 0.05 | 0.05 | 41 | 1003.1 |
| 20260505163532 | 10 | 188 | 4.8 | 9.7 | 0.00 | 0.05 | 0.05 | 31 | 1003.2 |
| 20260505163032 | 10 | 188 | 4.8 | 9.7 | 0.00 | 0.05 | 0.05 | 31 | 1003.2 |
| 20260505162530 | 10 | 203 | 4.8 | 12.9 | 0.00 | 0.05 | 0.05 | 32 | 1003.2 |
| 20260505162028 | 10 | 192 | 8.0 | 16.1 | 0.00 | 0.05 | 0.05 | 35 | 1003.2 |
| 20260505161538 | 10 | 186 | 9.7 | 16.1 | 0.00 | 0.05 | 0.05 | 36 | 1003.2 |
| 20260505161025 | 10 | 167 | 11.3 | 14.5 | 0.00 | 0.05 | 0.05 | 40 | 1003.0 |
| 20260505160526 | 10 | 174 | 9.7 | 14.5 | 0.00 | 0.05 | 0.05 | 41 | 1003.0 |